Temp
-9 -10 -10 -9 -9 -10 -9 -9 -9 -9 -9 -9 -9 -9 -9 -9 -9 -9 -9 -10 -10 -11 -13 -13 -14 -15 -16 -17 -17 -16 -16 -15 -14 -14 -14 -14 -13 -13 -13 -12 -12 -12 -12 -11
-9 -10 -10 -9 -10 -9 -9 -9 -10 -9 -9 -9 -9 -9 -9 -9 -9 -9 -10 -10 -10 -12 -13 -14 -14 -15 -16 -17 -17 -16 -16 -15 -14 -14 -14 -13 -13 -13 -13 -13 -13 -12 -11 -11
-10 -10 -10 -10 -10 -10 -9 -9 -10 -9 -9 -9 -9 -9 -10 -9 -9 -9 -10 -10 -10 -12 -13 -14 -14 -15 -16 -16 -15 -15 -15 -15 -15 -14 -13 -13 -13 -13 -13 -13 -12 -12 -10 -10
-10 -11 -10 -10 -10 -10 -9 -9 -10 -10 -10 -10 -9 -9 -9 -9 -9 -9 -10 -10 -10 -12 -13 -14 -14 -14 -15 -15 -16 -15 -15 -15 -14 -14 -14 -14 -13 -13 -13 -12 -12 -11 -11 -10
-11 -11 -10 -10 -10 -10 -10 -10 -10 -10 -10 -10 -10 -9 -9 -9 -9 -10 -10 -10 -10 -12 -13 -14 -14 -14 -14 -15 -15 -15 -15 -15 -14 -14 -14 -14 -14 -13 -13 -12 -11 -12 -12 -11
-11 -10 -11 -11 -10 -10 -10 -10 -10 -10 -10 -9 -10 -10 -10 -9 -10 -10 -10 -10 -10 -11 -13 -13 -14 -14 -14 -14 -15 -15 -15 -14 -14 -14 -15 -14 -15 -14 -13 -11 -12 -11 -12 -11
-12 -11 -11 -11 -11 -10 -10 -10 -10 -10 -10 -10 -10 -10 -10 -10 -10 -10 -10 -10 -10 -11 -13 -13 -13 -14 -14 -14 -14 -15 -15 -15 -15 -15 -15 -15 -15 -13 -12 -12 -12 -11 -11 -11
-12 -11 -11 -11 -11 -11 -11 -10 -10 -10 -10 -10 -10 -9 -10 -10 -10 -10 -10 -10 -10 -11 -12 -13 -13 -13 -14 -14 -14 -15 -15 -15 -15 -15 -15 -14 -15 -13 -12 -12 -12 -11 -11 -11
-12 -12 -12 -12 -12 -11 -11 -11 -11 -10 -10 -10 -10 -10 -10 -10 -10 -10 -10 -10 -11 -11 -12 -13 -13 -13 -13 -13 -14 -14 -14 -14 -15 -15 -15 -15 -13 -13 -13 -12 -12 -12 -12 -12
-13 -13 -12 -12 -12 -12 -11 -11 -11 -10 -10 -10 -10 -10 -9 -10 -10 -10 -10 -10 -11 -11 -11 -12 -13 -13 -13 -13 -13 -13 -13 -14 -14 -14 -15 -16 -16 -14 -13 -13 -13 -12 -12 -12
-14 -14 -13 -12 -12 -12 -11 -11 -11 -11 -11 -10 -10 -10 -10 -10 -10 -10 -10 -10 -11 -11 -11 -11 -13 -13 -14 -14 -14 -14 -14 -14 -14 -14 -14 -14 -15 -15 -15 -15 -14 -13 -12 -12
-16 -15 -14 -13 -12 -12 -12 -12 -11 -11 -11 -11 -10 -10 -10 -10 -10 -10 -10 -10 -11 -11 -11 -11 -12 -13 -13 -13 -14 -14 -14 -14 -14 -14 -14 -14 -14 -14 -14 -14 -15 -14 -14 -13
-16 -16 -15 -14 -13 -12 -12 -12 -11 -11 -11 -11 -10 -10 -10 -10 -10 -10 -10 -10 -11 -11 -11 -11 -11 -12 -13 -14 -14 -14 -14 -14 -14 -14 -14 -14 -14 -14 -14 -13 -13 -13 -14 -13
-17 -16 -16 -15 -13 -13 -12 -12 -12 -11 -11 -11 -10 -10 -10 -10 -10 -10 -11 -10 -11 -11 -11 -11 -11 -12 -12 -13 -13 -14 -14 -14 -14 -14 -14 -14 -14 -14 -14 -14 -13 -13 -13 -13
-16 -16 -16 -15 -15 -14 -13 -12 -12 -12 -11 -11 -11 -10 -10 -10 -10 -11 -11 -11 -11 -11 -11 -11 -11 -11 -12 -12 -12 -13 -13 -14 -14 -14 -14 -14 -14 -14 -14 -14 -13 -13 -13 -13
-16 -15 -16 -15 -15 -14 -13 -13 -12 -12 -11 -11 -11 -10 -10 -10 -11 -11 -11 -11 -11 -11 -11 -11 -11 -11 -12 -12 -12 -13 -13 -13 -13 -13 -13 -13 -13 -13 -13 -13 -13 -13 -13 -13
-16 -16 -17 -15 -16 -15 -14 -12 -12 -12 -12 -11 -11 -11 -10 -10 -11 -11 -10 -11 -11 -11 -11 -11 -12 -12 -12 -12 -12 -13 -13 -13 -13 -13 -13 -13 -14 -14 -14 -14 -14 -14 -14 -14
-18 -17 -17 -16 -16 -16 -12 -13 -12 -12 -12 -11 -11 -11 -11 -10 -11 -11 -11 -11 -11 -11 -11 -11 -12 -12 -12 -12 -12 -13 -13 -13 -13 -13 -13 -13 -13 -14 -14 -14 -14 -14 -14 -14
-18 -18 -17 -17 -16 -14 -14 -13 -12 -12 -11 -12 -11 -11 -11 -11 -11 -11 -11 -11 -11 -11 -11 -11 -12 -12 -12 -12 -13 -13 -13 -13 -13 -13 -13 -13 -13 -14 -14 -14 -14 -14 -14 -14
-19 -17 -18 -17 -17 -15 -13 -13 -13 -13 -11 -12 -12 -12 -11 -11 -11 -11 -11 -11 -11 -11 -11 -11 -11 -12 -12 -12 -13 -13 -13 -13 -13 -13 -14 -14 -14 -14 -14 -14 -14 -14 -14 -14
-18 -18 -18 -17 -16 -15 -14 -14 -13 -13 -11 -12 -12 -12 -11 -11 -11 -11 -11 -11 -11 -11 -11 -12 -11 -12 -12 -12 -13 -13 -13 -13 -13 -14 -14 -13 -13 -13 -13 -14 -14 -14 -14 -14
-19 -18 -17 -18 -17 -16 -15 -14 -13 -12 -13 -12 -12 -12 -12 -12 -11 -12 -11 -11 -11 -11 -12 -12 -12 -12 -12 -12 -12 -13 -13 -13 -13 -14 -14 -14 -14 -15 -15 -15 -15 -15 -15 -15
-20 -20 -17 -17 -16 -15 -15 -14 -14 -13 -13 -13 -12 -12 -12 -12 -12 -12 -11 -11 -11 -12 -12 -12 -12 -12 -12 -12 -13 -13 -13 -13 -14 -14 -14 -14 -15 -15 -15 -15 -15 -15 -15 -15
-20 -19 -19 -18 -18 -17 -15 -15 -14 -13 -14 -14 -13 -12 -12 -12 -12 -12 -12 -12 -12 -12 -12 -12 -12 -12 -12 -13 -13 -13 -14 -14 -14 -14 -14 -14 -15 -15 -16 -16 -16 -16 -16 -16
-21 -20 -18 -18 -18 -18 -17 -16 -16 -16 -15 -14 -13 -13 -13 -12 -12 -12 -12 -12 -12 -12 -12 -12 -12 -12 -12 -13 -13 -14 -14 -14 -14 -14 -14 -14 -15 -15 -15 -15 -16 -16 -16 -16
-22 -21 -19 -17 -18 -17 -18 -17 -17 -16 -16 -14 -14 -13 -13 -13 -13 -12 -12 -12 -12 -13 -13 -13 -13 -12 -12 -13 -14 -14 -14 -14 -14 -15 -15 -15 -15 -15 -15 -16 -16 -16 -16 -16
Height
5791 5793 5792 5792 5793 5793 5791 5791 5790 5788 5786 5786 5784 5784 5782 5779 5774 5770 5765 5758 5748 5737 5726 5718 5706 5693 5682 5679 5686 5695 5704 5713 5721 5728 5733 5738 5743 5749 5754 5757 5764 5769 5774 5779
5786 5787 5786 5788 5787 5788 5787 5786 5785 5783 5781 5781 5779 5779 5776 5773 5769 5765 5760 5753 5744 5731 5722 5713 5702 5689 5679 5678 5683 5690 5699 5708 5716 5723 5728 5733 5739 5744 5748 5751 5757 5762 5769 5774
5780 5781 5781 5783 5783 5782 5783 5781 5780 5779 5777 5775 5775 5774 5772 5769 5765 5761 5756 5749 5739 5728 5719 5711 5701 5691 5685 5682 5683 5688 5698 5706 5713 5718 5722 5729 5734 5738 5742 5746 5751 5756 5763 5768
5774 5776 5776 5777 5779 5778 5777 5777 5775 5773 5773 5771 5771 5770 5767 5765 5761 5757 5752 5746 5736 5726 5718 5710 5702 5695 5690 5687 5687 5691 5698 5703 5708 5714 5719 5725 5729 5731 5734 5739 5744 5750 5757 5761
5771 5771 5771 5771 5773 5774 5773 5772 5771 5769 5768 5767 5765 5763 5763 5760 5757 5754 5750 5744 5735 5725 5717 5709 5704 5699 5694 5694 5693 5695 5698 5703 5708 5711 5715 5718 5723 5725 5727 5733 5737 5746 5751 5756
5762 5764 5765 5766 5766 5768 5769 5766 5766 5764 5763 5763 5762 5761 5758 5756 5754 5751 5746 5741 5734 5725 5718 5710 5705 5702 5699 5698 5698 5699 5701 5704 5706 5708 5712 5715 5715 5718 5722 5726 5732 5739 5747 5752
5755 5756 5758 5760 5761 5762 5763 5763 5761 5761 5759 5759 5758 5757 5756 5753 5751 5749 5745 5740 5733 5725 5719 5712 5707 5705 5703 5702 5702 5703 5704 5705 5706 5708 5713 5714 5714 5715 5718 5721 5728 5736 5743 5750
5742 5747 5750 5756 5757 5755 5756 5758 5757 5756 5755 5754 5754 5753 5753 5749 5748 5746 5743 5738 5733 5726 5720 5715 5710 5707 5707 5706 5706 5705 5706 5707 5705 5710 5713 5714 5713 5715 5717 5720 5725 5733 5740 5747
5735 5737 5741 5748 5748 5749 5750 5752 5752 5751 5750 5749 5751 5749 5748 5746 5745 5743 5741 5737 5733 5727 5722 5717 5713 5710 5709 5708 5707 5708 5708 5709 5711 5708 5710 5710 5708 5711 5715 5719 5722 5729 5738 5745
5725 5726 5731 5735 5738 5741 5744 5746 5747 5745 5746 5745 5745 5745 5745 5743 5742 5740 5738 5735 5732 5728 5724 5719 5716 5713 5712 5711 5709 5709 5709 5709 5710 5712 5714 5712 5710 5712 5714 5720 5724 5727 5733 5739
5714 5714 5716 5723 5729 5736 5737 5738 5741 5741 5741 5741 5741 5742 5741 5741 5739 5737 5735 5734 5731 5728 5725 5722 5718 5715 5713 5713 5713 5712 5711 5712 5713 5713 5714 5716 5717 5718 5720 5721 5724 5727 5731 5736
5701 5702 5702 5713 5716 5723 5727 5730 5732 5735 5736 5736 5737 5739 5738 5738 5737 5735 5733 5731 5729 5727 5725 5723 5720 5717 5715 5715 5715 5715 5714 5714 5715 5716 5716 5717 5719 5720 5721 5723 5726 5729 5732 5736
5684 5682 5690 5693 5703 5709 5715 5724 5727 5730 5729 5731 5732 5735 5735 5735 5734 5732 5730 5729 5727 5726 5725 5724 5722 5719 5717 5717 5716 5716 5716 5716 5717 5718 5719 5720 5722 5723 5723 5724 5728 5730 5732 5735
5661 5669 5678 5685 5700 5704 5710 5718 5721 5722 5723 5727 5728 5730 5731 5732 5731 5729 5728 5727 5726 5725 5724 5723 5722 5721 5719 5718 5717 5717 5718 5718 5719 5719 5719 5721 5722 5723 5724 5725 5727 5729 5732 5734
5645 5656 5666 5673 5682 5684 5696 5705 5709 5711 5722 5719 5722 5726 5727 5728 5728 5727 5725 5725 5724 5724 5723 5723 5722 5721 5721 5720 5719 5718 5718 5719 5720 5721 5722 5724 5724 5725 5727 5728 5729 5732 5733 5733
5635 5646 5654 5659 5671 5673 5684 5692 5698 5706 5710 5715 5717 5721 5723 5724 5725 5724 5722 5723 5723 5723 5722 5721 5721 5721 5721 5720 5721 5721 5720 5721 5721 5722 5722 5722 5723 5724 5727 5728 5727 5729 5732 5734
5623 5633 5640 5647 5658 5663 5667 5680 5688 5699 5703 5711 5712 5714 5719 5720 5721 5720 5720 5720 5721 5721 5721 5720 5720 5720 5720 5720 5720 5721 5721 5721 5722 5722 5723 5723 5725 5727 5727 5726 5727 5729 5730 5730
5609 5616 5624 5634 5644 5643 5663 5671 5681 5690 5698 5701 5706 5709 5714 5716 5717 5717 5718 5718 5719 5719 5719 5719 5718 5719 5719 5719 5719 5719 5720 5720 5721 5721 5722 5722 5722 5723 5723 5723 5724 5726 5726 5727
5597 5603 5613 5620 5628 5644 5647 5661 5669 5679 5691 5695 5702 5703 5708 5712 5713 5714 5715 5715 5716 5717 5717 5717 5717 5717 5717 5718 5718 5718 5718 5719 5719 5720 5720 5721 5722 5722 5723 5724 5725 5725 5725 5726
5584 5591 5598 5608 5618 5625 5645 5651 5659 5668 5676 5686 5694 5697 5702 5707 5710 5710 5711 5712 5714 5714 5715 5715 5716 5716 5716 5716 5716 5716 5716 5717 5717 5717 5718 5718 5719 5720 5721 5721 5722 5721 5720 5719
5564 5571 5582 5600 5608 5620 5631 5641 5650 5660 5676 5682 5688 5692 5697 5703 5704 5707 5708 5710 5711 5712 5713 5713 5713 5713 5714 5714 5714 5714 5714 5714 5714 5715 5716 5716 5717 5717 5717 5717 5716 5716 5715 5714
5554 5562 5572 5588 5598 5606 5619 5630 5646 5658 5667 5675 5681 5686 5693 5694 5701 5702 5704 5706 5707 5709 5710 5711 5711 5711 5712 5712 5712 5711 5711 5712 5713 5713 5713 5713 5712 5712 5712 5712 5711 5711 5711 5711
5535 5548 5567 5577 5590 5606 5615 5627 5641 5651 5661 5667 5674 5679 5682 5690 5694 5698 5700 5702 5704 5705 5707 5708 5709 5710 5710 5710 5709 5709 5709 5709 5710 5711 5710 5709 5709 5708 5708 5709 5709 5709 5709 5708
5529 5546 5554 5570 5580 5592 5606 5619 5631 5642 5652 5658 5665 5671 5678 5683 5688 5693 5696 5699 5701 5702 5704 5705 5706 5707 5707 5707 5706 5707 5707 5707 5707 5707 5707 5706 5705 5704 5704 5704 5704 5703 5703 5702
5522 5536 5548 5559 5571 5584 5598 5612 5624 5633 5642 5651 5658 5665 5671 5678 5683 5688 5692 5695 5698 5700 5701 5701 5702 5704 5704 5703 5703 5704 5704 5704 5705 5705 5704 5703 5702 5702 5701 5700 5699 5698 5697 5695
5510 5524 5532 5548 5564 5572 5587 5605 5615 5624 5634 5643 5651 5658 5665 5671 5677 5682 5687 5691 5694 5696 5698 5699 5700 5700 5701 5700 5700 5700 5700 5702 5702 5702 5701 5700 5699 5698 5697 5696 5694 5692 5691 5689
Wind_Speed
22 22 24 22 19 20 24 25 26 28 29 26 29 28 28 28 29 31 33 36 42 43 41 38 39 38 30 30 27 33 37 35 35 34 32 34 36 36 34 37 34 34 32 28
22 22 26 22 19 21 24 24 25 26 27 26 28 26 27 27 28 30 32 35 40 40 36 31 33 29 14 8 14 24 33 31 31 29 30 30 31 30 29 30 27 31 29 26
27 25 24 22 22 22 25 25 25 25 25 25 26 25 23 26 26 27 29 33 36 37 31 27 31 23 11 2 7 16 22 24 29 29 29 25 27 24 28 26 24 26 24 24
30 25 23 23 22 24 23 25 25 25 24 25 23 24 23 23 24 26 27 30 34 34 27 23 25 21 14 3 7 15 19 25 31 27 23 24 23 29 32 26 21 25 29 23
30 28 27 22 23 24 22 21 24 23 23 23 23 26 22 23 23 23 24 26 30 29 24 17 16 15 9 3 8 13 19 24 23 24 25 28 27 32 24 25 35 30 27 24
33 31 28 27 23 23 20 21 22 22 22 22 21 22 22 19 21 21 21 23 25 26 20 15 12 10 7 3 5 11 16 19 23 26 29 31 30 35 14 25 36 34 32 16
35 34 31 30 26 22 22 23 22 21 20 22 19 20 18 18 19 19 17 19 22 22 18 13 9 6 4 4 7 10 13 17 21 23 23 28 33 21 14 22 33 35 35 28
42 38 35 32 28 26 25 25 22 21 21 21 20 19 15 17 17 16 14 14 18 18 16 11 8 6 5 5 6 1 10 11 19 18 19 27 27 12 11 12 34 30 33 31
41 42 39 34 35 31 27 24 25 22 21 21 17 18 14 16 15 14 12 10 13 15 13 9 6 6 5 4 4 6 5 6 2 4 6 6 11 14 14 11 18 28 25 30
40 44 43 39 39 35 29 26 26 22 22 19 17 15 14 14 15 13 10 8 8 11 10 8 5 3 2 2 3 4 5 3 2 3 4 11 11 5 13 13 17 18 27 26
41 44 49 45 43 37 34 29 28 25 20 18 16 16 14 14 15 12 9 7 5 7 10 7 4 4 3 2 1 1 1 2 1 1 4 7 10 8 6 4 7 14 19 24
37 41 49 43 46 43 40 34 32 28 21 19 18 15 15 14 14 11 8 6 4 4 6 8 5 4 4 4 4 3 2 0 3 2 2 5 6 8 9 10 11 10 13 17
52 53 46 50 49 48 46 37 31 28 27 18 20 16 14 13 13 11 8 7 4 2 3 5 7 6 4 4 4 5 4 2 1 2 3 2 1 2 4 6 11 15 16 19
55 52 52 49 44 46 44 37 32 32 31 18 18 17 15 13 12 11 8 7 5 3 2 3 4 5 6 4 4 5 6 5 4 2 1 5 7 9 4 1 4 6 10 14
65 62 54 54 45 50 49 44 42 40 24 25 19 16 17 14 12 10 8 7 6 4 2 2 2 2 4 5 4 4 4 4 3 2 4 7 11 6 5 7 8 14 6 14
68 64 59 55 48 54 49 48 47 41 35 28 22 17 15 13 11 10 8 7 6 5 3 2 2 2 1 3 5 5 4 4 3 4 4 2 2 3 4 6 6 7 8 9
65 63 62 62 49 50 54 53 51 45 40 27 25 22 15 13 11 10 8 7 7 6 5 3 3 4 3 2 1 3 4 4 4 4 4 4 4 5 4 4 4 6 8 9
57 66 68 62 49 54 54 50 50 47 41 37 30 23 20 14 11 10 10 9 8 7 6 4 3 4 5 4 2 2 1 1 1 2 3 3 4 5 6 7 7 9 10 11
60 64 71 69 62 58 56 53 52 50 44 40 31 29 22 17 12 9 10 11 9 8 6 5 3 3 4 5 5 4 5 5 4 4 5 5 6 7 8 9 11 12 13 14
63 60 72 66 69 65 58 56 54 49 48 43 37 34 27 21 13 13 10 11 11 9 7 5 2 2 3 5 6 5 6 7 8 8 8 9 10 10 12 13 14 15 15 16
70 65 61 65 66 71 63 58 54 52 45 37 35 33 31 22 22 12 11 11 12 11 9 7 5 3 2 3 4 5 6 8 10 11 11 12 14 15 16 16 16 17 17 18
78 70 63 68 63 70 65 63 55 49 38 34 32 33 29 32 22 18 12 11 13 14 14 12 9 6 4 5 3 4 6 8 9 11 13 14 15 16 17 17 17 18 20 21
74 76 61 66 68 74 67 58 50 45 35 34 34 31 35 31 26 22 15 13 13 11 10 9 9 9 9 8 5 4 4 4 6 9 12 14 15 15 16 18 20 21 23 24
61 62 60 60 68 66 73 65 52 47 39 34 33 35 35 33 29 25 19 13 12 10 8 6 6 7 10 11 8 5 3 2 4 8 10 11 12 14 15 17 18 20 22 23
52 63 57 64 65 68 64 62 53 48 33 39 35 33 35 34 31 27 23 17 13 12 8 5 3 2 4 11 9 5 3 4 5 7 9 9 10 11 13 16 18 19 21 23
49 51 70 62 68 65 67 55 44 40 43 34 38 37 34 35 33 30 25 20 16 14 9 4 1 3 3 6 6 4 3 5 7 8 8 9 9 10 12 14 16 18 21 24
Wind_Direction
264 266 267 265 271 271 270 273 276 277 277 279 284 289 300 309 314 318 319 323 328 323 323 318 315 312 301 270 245 234 231 226 226 225 225 227 231 234 240 251 248 249 253 255
258 264 266 270 265 266 270 271 273 273 276 282 283 293 302 311 316 319 321 328 331 327 324 326 328 331 327 283 240 224 225 219 218 225 225 228 228 233 243 239 235 242 248 253
258 259 263 265 264 263 266 267 269 273 277 279 286 289 303 309 315 319 324 332 336 331 327 329 337 344 343 288 214 208 212 210 207 220 224 227 225 234 230 216 220 232 231 235
258 259 251 259 265 262 264 270 271 273 275 278 283 290 304 308 317 320 326 336 343 335 333 329 341 348 2 304 186 172 183 198 203 215 219 218 223 224 215 203 207 217 221 227
260 254 254 250 257 264 265 270 272 271 275 276 285 294 301 309 319 319 326 340 349 340 340 345 349 356 14 47 158 177 192 195 200 209 210 212 218 224 213 200 189 212 198 202
255 254 252 250 248 259 265 267 271 271 272 275 280 291 303 312 314 317 327 342 357 346 348 355 6 11 50 80 174 183 184 196 206 211 212 216 223 221 233 199 196 202 203 222
252 256 247 248 245 251 260 264 268 270 271 274 281 290 296 306 309 312 323 343 4 354 356 3 10 31 38 116 166 195 210 214 216 221 224 232 232 230 232 193 202 204 208 212
243 246 247 243 247 243 250 258 266 269 270 273 282 293 295 296 302 307 319 343 7 6 359 11 27 49 68 70 37 309 214 221 228 224 232 240 244 233 193 197 196 197 200 216
247 246 245 243 244 245 241 255 256 260 264 272 278 285 291 292 296 300 312 339 6 21 6 13 37 66 81 61 56 65 46 35 69 264 298 328 158 167 131 147 175 200 204 211
240 241 241 238 238 240 242 243 251 254 261 269 278 281 289 290 287 292 305 328 2 30 27 13 33 67 99 108 114 107 107 92 28 304 309 329 350 79 145 160 175 177 190 197
239 238 242 237 235 240 242 242 247 249 249 261 270 274 288 284 278 286 295 311 350 19 49 38 24 52 79 126 202 218 128 112 87 323 329 318 325 327 307 286 160 181 179 194
227 237 241 238 235 234 235 235 237 242 243 248 257 270 279 273 273 276 287 292 328 6 32 62 56 54 77 75 106 140 189 110 90 91 19 324 315 308 303 280 266 219 203 201
224 227 228 236 228 227 231 233 234 238 241 240 254 262 267 260 264 267 274 279 294 344 21 50 68 74 79 125 131 133 150 143 155 162 142 151 83 340 305 299 258 237 227 225
223 222 223 236 237 234 231 233 232 234 235 236 243 252 257 251 259 262 261 268 272 296 358 34 57 76 98 94 123 147 171 186 173 195 172 149 141 125 104 268 229 207 242 235
228 222 220 222 223 230 223 224 226 228 224 230 232 245 244 247 246 255 251 256 263 263 279 346 15 50 99 125 121 119 134 154 175 167 150 154 168 156 179 146 166 195 226 229
229 228 216 220 222 227 220 219 224 223 219 221 227 232 232 234 230 241 240 242 250 257 260 265 304 311 12 112 134 157 157 154 173 200 207 221 224 258 211 173 164 200 225 236
228 224 216 218 221 224 222 213 218 221 220 215 222 228 226 226 224 224 225 231 228 240 245 246 256 279 294 333 72 129 156 177 193 195 205 229 238 240 251 274 262 247 260 270
231 224 214 216 216 224 215 217 218 220 221 220 217 225 226 228 220 220 220 228 228 240 236 233 248 267 280 283 296 310 305 225 213 244 255 260 263 280 289 290 289 283 282 281
228 227 218 217 214 218 219 214 215 217 218 223 219 226 223 227 230 220 216 224 233 241 239 240 232 243 258 263 260 267 277 281 273 271 276 279 277 275 272 268 267 271 275 279
216 213 220 215 215 216 215 213 213 215 216 220 217 222 222 226 231 225 215 218 226 226 228 232 219 171 199 229 241 248 258 269 274 272 273 277 279 281 284 285 285 288 293 298
217 209 214 213 218 215 215 218 217 214 214 220 220 222 222 224 231 223 209 212 218 220 222 222 201 174 189 220 221 234 245 256 262 266 269 271 273 275 278 282 286 291 295 297
218 217 209 208 215 217 215 217 214 212 214 217 219 221 220 224 225 223 217 207 209 216 219 219 221 227 247 280 261 238 240 253 259 268 274 277 279 282 283 283 283 284 285 287
224 221 211 213 220 220 217 215 215 215 211 216 219 217 216 216 219 222 221 205 202 209 215 217 225 238 245 252 257 252 266 269 258 263 268 276 284 287 293 295 294 295 294 294
223 221 224 210 215 220 222 218 214 216 212 213 214 214 213 213 217 220 220 211 199 192 181 172 188 215 227 233 243 264 293 318 287 275 279 281 282 284 286 288 287 288 291 294
221 212 214 207 215 218 222 219 220 222 221 212 211 210 211 214 215 216 216 213 201 188 187 168 144 163 234 234 241 253 291 312 294 289 284 280 285 294 298 294 292 294 295 296
208 216 212 206 212 218 216 216 213 217 211 206 210 210 210 211 213 213 215 212 203 203 209 200 125 84 174 231 248 240 261 269 257 272 279 288 297 304 305 301 297 299 298 298